GFSFLT1_con_mucape_081.txt.gz
CAPE
0 177 524 587 674 606 628 676 535 12 51 0 2 75 21 0 3 0 2 46 56 93 50 57 52 44 33 44 23 19 17 12
0 0 435 521 500 539 508 628 166 62 89 5 0 0 0 10 24 26 8 0 3 62 29 20 26 35 31 45 9 4 6 16
0 6 366 436 399 470 480 549 113 38 167 0 13 4 2 21 28 31 60 13 3 14 7 14 41 34 37 41 0 1 0 0
0 0 253 396 396 359 542 358 101 46 4 11 2 20 4 11 15 67 18 10 5 11 21 19 31 26 26 14 2 0 0 1
0 0 147 326 471 311 480 219 174 185 14 8 2 6 5 14 15 21 2 4 7 10 29 41 5 37 37 0 0 0 0 0
0 0 47 233 359 280 365 161 101 185 28 2 3 8 10 6 64 8 4 25 8 4 17 39 34 50 60 0 3 0 0 18
0 2 82 161 217 195 237 130 58 93 29 2 0 26 4 4 22 20 37 15 9 8 6 28 39 26 19 0 0 0 0 12
13 93 123 144 98 111 152 114 62 97 28 4 2 17 10 7 21 36 42 27 30 10 4 4 4 1 2 0 0 1 13 37
1 112 144 187 82 115 119 115 69 95 14 3 3 1 2 2 1 0 0 16 20 32 5 2 3 0 0 1 3 5 39 33
2 6 135 127 50 58 104 114 96 75 0 3 3 0 0 0 0 0 0 6 12 21 14 3 6 2 13 12 0 1 3 0
0 3 51 81 46 88 81 115 119 55 1 1 2 1 1 0 0 0 0 3 1 0 8 1 2 12 12 8 2 0 2 0
41 42 41 47 61 129 58 122 143 47 2 1 2 4 2 3 0 0 0 0 3 0 0 9 19 10 9 23 4 0 4 1
74 25 71 151 218 127 209 246 113 32 3 1 2 4 5 5 1 0 3 0 0 3 3 5 0 6 13 36 15 6 3 9
37 16 92 108 139 198 228 152 82 26 0 2 3 4 2 4 0 2 4 4 0 0 0 1 0 2 13 27 32 39 18 10
5 7 33 137 155 186 173 147 107 53 6 2 2 1 3 3 5 0 0 0 0 0 0 0 0 0 0 0 0 3 9 13
75 45 259 243 244 294 144 131 100 65 24 37 40 33 27 22 14 0 0 0 2 2 1 0 0 0 0 0 8 4 1 0
144 28 17 67 83 84 128 141 152 64 48 51 49 62 69 69 57 45 50 37 29 21 5 6 4 3 3 3 0 0 0 2
111 77 42 112 141 137 123 106 62 16 9 6 0 19 33 40 21 24 45 61 40 47 42 27 26 3 2 2 3 10 21 5
99 135 95 119 91 34 36 13 17 8 7 0 0 3 6 0 0 1 0 1 1 8 10 4 3 42 5 14 10 16 22 8

GFSFLT1_con_mucape_084.txt.gz
CAPE
0 0 0 559 1160 1599 1759 1514 1591 1201 615 397 302 294 131 234 229 171 159 354 259 222 184 201 76 57 45 45 141 193 185 138
0 0 0 696 1201 1656 1678 1373 1436 796 335 372 251 310 153 176 47 243 70 38 177 95 74 72 59 62 28 33 165 175 145 144
0 0 8 745 1148 1579 1567 1250 1135 787 526 300 140 50 90 128 69 247 207 109 143 67 50 54 58 28 46 18 125 149 152 134
0 0 0 701 994 1498 1209 1022 1094 508 461 213 159 91 24 37 109 232 121 75 56 36 38 20 12 41 20 14 109 157 150 151
0 0 0 520 882 1342 970 965 1000 382 299 193 112 33 15 80 66 23 89 5 18 19 3 8 9 22 38 27 24 137 126 133
0 0 0 342 789 1312 912 606 655 298 143 247 73 58 45 100 40 28 6 0 6 1 16 30 20 16 15 34 43 174 169 159
1 0 0 223 738 1210 669 772 390 229 226 261 81 70 57 43 41 3 15 4 3 6 6 12 9 24 29 4 71 128 100 153
323 124 181 362 900 745 733 534 371 161 466 163 27 54 41 18 28 2 4 4 6 9 1 0 10 14 30 43 48 34 68 138
457 158 349 457 851 482 346 298 322 137 279 57 7 14 24 19 3 10 9 13 11 11 3 9 32 32 53 31 0 4 50 126
554 166 483 518 668 303 442 275 230 121 122 5 8 12 14 7 1 4 33 51 47 6 0 0 2 30 9 4 1 5 1 64
160 252 412 603 366 94 417 418 169 123 114 2 3 8 11 6 5 25 26 30 27 24 4 13 0 8 4 1 1 0 0 0
240 322 321 322 306 183 484 208 144 150 92 3 5 6 7 10 2 0 21 28 7 31 2 6 3 0 1 9 3 3 6 3
162 97 231 144 50 256 416 103 153 171 43 0 5 18 14 4 0 11 29 33 31 31 19 0 1 16 2 6 1 4 13 1
229 109 86 60 66 127 358 81 136 144 43 14 12 16 1 3 9 30 19 0 13 21 22 38 10 2 4 17 10 6 14 4
72 171 80 101 107 131 151 340 198 114 45 14 5 3 3 5 4 25 7 4 3 5 3 6 6 10 7 17 13 29 20 26
96 83 77 112 141 211 370 285 181 108 59 24 3 3 3 4 10 18 31 30 24 23 17 1 4 0 0 0 0 0 6 14
169 40 119 151 265 283 587 140 142 104 46 18 1 3 2 3 0 4 12 4 7 0 0 4 0 0 0 0 0 1 32 7
148 57 156 184 191 346 279 178 113 115 50 21 19 22 28 38 50 64 54 38 35 72 19 9 4 2 2 0 0 1 5 2
108 83 191 93 180 131 217 211 168 125 69 76 74 62 32 34 66 44 76 102 45 96 66 52 56 89 43 47 35 34 22 24

GFSFLT1_con_mucape_087.txt.gz
CAPE
0 0 0 0 1 520 1550 2490 2110 2172 2067 1533 1181 815 716 611 495 620 681 490 313 313 176 196 130 261 265 182 86 85 139 142
0 0 0 0 99 1014 1706 2330 2069 2358 1703 1067 911 637 610 347 280 320 350 383 268 215 194 157 60 192 140 151 93 64 68 85
0 0 0 0 481 1314 1809 2182 2066 2005 1327 1263 946 771 465 588 507 266 164 120 211 294 172 73 73 75 51 85 70 58 84 152
0 0 0 15 540 1286 1739 2071 2047 1843 1404 1230 868 571 353 377 221 184 691 502 431 305 181 103 64 85 45 38 21 37 41 94
0 0 0 8 580 1171 1619 1921 1875 1758 1466 1121 782 495 292 284 207 263 391 276 223 195 172 101 76 35 55 41 15 45 69 143
0 0 0 0 425 998 1645 1718 1642 1607 1336 1040 772 472 242 164 197 219 118 27 4 23 16 21 21 35 8 35 32 38 50 170
19 17 16 8 137 1162 1810 1541 1607 1199 1275 1022 817 486 175 128 237 281 14 11 0 0 0 0 7 20 8 14 41 17 71 123
427 224 59 17 345 1201 1716 1416 1504 1038 1149 1057 710 401 167 87 233 109 7 0 0 2 0 2 14 13 11 26 25 44 113 102
28 598 342 276 377 1222 1235 897 955 732 1035 1008 594 215 114 62 216 29 2 0 0 5 6 5 4 12 34 42 11 35 75 128
13 156 445 633 903 1181 982 571 922 833 1185 854 377 194 69 60 148 94 48 11 2 4 5 0 4 6 12 12 8 9 20 94
78 289 535 804 983 879 719 531 800 732 966 550 156 86 37 54 75 71 97 82 17 17 3 4 3 7 9 33 44 26 1 2
278 333 448 792 745 532 351 792 701 539 531 204 101 50 49 44 35 43 24 46 30 49 23 0 6 0 6 3 6 1 0 0
253 581 519 574 436 338 347 516 260 480 208 168 64 99 50 10 52 10 8 18 27 4 46 3 0 10 0 0 1 3 4 1
55 428 503 440 188 201 521 568 315 344 184 148 66 27 160 5 5 3 13 19 24 37 27 7 3 4 2 1 1 3 5 3
104 81 458 525 103 85 281 493 209 214 166 58 66 62 30 8 2 7 3 7 6 10 9 29 4 4 9 0 0 4 1 8
52 194 193 128 141 143 160 176 80 158 172 56 48 52 29 6 2 3 1 2 3 5 6 11 5 4 5 1 6 9 15 5
87 155 147 122 135 95 131 148 189 228 175 72 52 41 5 2 4 5 4 2 3 3 2 5 5 4 5 3 8 56 8 7
114 148 109 311 211 182 232 185 292 282 171 100 48 5 5 8 8 5 11 4 4 0 0 0 0 0 0 0 0 2 5 14
45 155 130 225 224 231 204 271 303 246 145 108 2 8 10 7 3 6 10 22 56 76 58 76 27 26 18 24 12 10 9 12

GFSFLT1_con_mucape_090.txt.gz
CAPE
0 0 0 0 0 0 2521 2493 2387 2365 2209 2164 1791 1438 1046 1096 1239 1002 892 894 742 593 446 389 337 147 79 52 44 48 28 57
0 0 0 0 0 0 2598 2485 2271 2188 2098 1821 1519 1103 810 739 766 787 717 722 512 377 304 267 250 120 85 59 45 33 38 76
0 0 0 0 0 190 2456 2551 2170 2076 2140 1751 1260 968 722 490 569 499 697 598 323 236 196 235 278 128 95 55 77 22 43 34
0 0 0 0 105 1428 2256 2460 2034 2028 1941 1614 1107 829 728 622 445 367 514 562 291 197 134 226 297 94 95 70 53 44 0 42
0 0 0 0 259 1354 1891 2364 1944 2012 1729 1382 1038 763 519 469 324 249 315 353 155 85 87 108 74 103 128 81 56 39 19 24
0 0 0 0 221 1223 1540 2173 1928 1879 1662 1514 1109 788 527 350 390 341 361 458 191 142 183 131 75 54 73 79 53 73 27 10
105 136 26 0 163 1036 1521 2010 1838 1848 1576 1536 1067 858 509 341 282 304 152 43 142 70 1 38 87 55 41 34 64 49 21 15
11 83 230 171 68 1056 1594 1878 1747 1778 1523 1381 1075 916 616 407 353 207 65 80 13 0 2 0 1 7 10 32 35 32 26 19
0 63 133 74 533 1532 1725 1714 1555 1564 1462 1251 1099 758 380 291 302 98 34 2 0 0 0 8 23 1 23 6 32 21 32 6
0 0 43 278 815 1631 1759 1361 1454 1407 1223 1191 1103 604 286 234 261 69 50 23 0 0 0 0 0 1 17 9 7 8 15 38
0 76 199 876 1100 997 1075 1111 1040 1026 1237 1228 828 472 199 210 164 46 60 53 0 5 0 0 1 2 0 0 19 33 7 21
2 33 472 607 688 758 999 805 761 703 904 1163 839 305 180 86 143 133 100 61 15 3 3 2 0 6 2 4 9 28 18 28
0 83 124 278 420 439 946 489 594 788 1032 1071 539 217 78 165 153 84 48 57 25 13 2 4 1 7 1 7 22 29 21 12
0 7 229 280 369 303 305 362 599 898 906 644 303 208 157 152 49 49 142 37 13 14 21 1 8 4 12 6 7 2 0 0
0 4 127 239 405 534 644 554 581 425 961 338 216 106 89 159 111 73 8 9 10 12 21 5 6 7 10 7 2 8 5 4
0 3 63 147 257 30 378 453 366 297 585 259 176 33 43 68 55 29 30 15 2 6 6 3 2 2 5 9 1 4 9 5
0 1 63 97 366 257 228 180 196 216 448 332 212 38 32 21 19 29 16 3 5 4 3 2 5 4 3 2 2 5 4 2
0 4 42 56 97 267 177 128 161 237 475 218 160 65 55 29 6 4 5 3 4 1 1 6 7 7 3 1 1 5 10 9
0 0 8 75 98 147 166 119 125 46 164 160 235 93 22 9 10 7 5 4 3 5 3 1 2 2 3 2 2 2 6 8

GFSFLT1_con_mucape_093.txt.gz
CAPE
0 0 0 0 0 0 1730 2286 2372 2191 2199 2103 1961 1412 1057 1251 1144 963 1095 941 1027 789 622 498 438 273 205 121 36 20 21 55
0 0 0 0 0 0 1675 2028 2175 2131 2034 1772 1762 1772 1506 1022 991 839 687 786 880 739 516 375 395 251 165 97 20 27 45 36
0 0 0 0 0 0 1702 2098 2146 2100 1804 1939 1950 1703 1402 857 888 703 1092 785 784 675 456 338 282 204 146 66 23 49 67 47
0 0 0 0 0 17 1868 2111 2215 2103 1891 1848 1686 1486 1217 677 501 412 963 534 634 499 439 389 323 220 136 99 97 86 51 29
2 0 0 0 0 1235 1854 2045 2126 2048 1913 1870 1681 1498 1298 636 394 250 251 706 651 313 300 228 212 211 201 150 102 50 35 29
79 65 57 0 23 2000 2037 2038 1976 1893 1892 1731 1526 1511 1067 550 390 306 216 205 184 294 255 205 163 140 115 124 102 73 42 18
130 127 114 78 20 1897 2132 1979 1904 1862 1734 1551 1448 1231 705 534 383 276 263 265 257 231 185 324 68 170 89 137 105 82 51 22
87 100 149 117 55 295 1868 1987 1889 1874 1788 1450 1391 1096 958 497 295 371 367 381 202 103 150 77 95 75 31 38 86 85 58 51
19 49 98 170 632 400 1243 1711 1871 1738 1833 1640 1364 1493 1017 521 371 236 187 46 20 38 10 3 3 4 88 51 59 42 51 16
6 33 87 369 740 1020 1396 1671 1545 1502 1501 1322 1233 1127 809 507 375 234 87 33 52 0 0 0 0 0 0 1 34 23 38 17
5 35 103 378 454 917 812 951 1132 1241 1182 1146 1018 1041 827 638 369 199 86 55 6 0 2 0 0 0 1 3 44 32 49 17
0 6 137 226 297 298 310 343 380 691 981 1109 1119 1242 838 514 277 166 60 71 25 2 1 0 0 9 7 10 9 14 35 23
0 3 39 177 183 287 237 369 553 494 829 968 1189 884 947 427 210 130 105 70 30 19 2 4 0 1 11 7 1 0 12 1
0 3 3 75 49 17 55 353 301 579 715 967 873 1023 783 213 279 217 247 129 66 24 6 3 1 4 13 13 18 0 1 10
0 0 7 22 114 17 269 111 336 435 658 680 814 828 352 131 218 70 161 76 47 23 4 4 3 8 7 11 16 7 18 10
0 0 5 6 44 148 254 314 418 526 618 549 673 310 116 34 99 38 52 111 38 30 4 9 3 5 8 11 10 14 5 2
0 0 0 15 43 90 127 285 332 547 414 454 423 141 139 5 8 15 47 47 23 3 5 5 7 5 2 0 8 23 5 55
0 0 0 18 28 78 171 267 344 320 328 202 105 185 145 55 4 9 9 34 22 10 3 4 5 5 4 4 6 1 3 4
0 0 0 9 7 116 98 152 103 80 232 132 145 49 119 130 49 5 78 38 6 6 7 5 5 4 4 1 3 5 4 13

GFSFLT1_con_mucape_096.txt.gz
CAPE
0 0 0 0 0 0 1523 2192 2269 2316 2230 1652 1819 2023 2021 1807 1638 1663 1550 1315 1286 1159 1040 921 667 530 438 298 215 89 55 56
0 0 0 0 0 0 1303 2082 2135 2236 2245 1657 1581 1875 1745 1601 1360 1036 1202 1213 1008 1045 993 919 705 542 423 292 216 137 74 32
0 0 0 0 0 0 321 1870 2034 2103 2096 1925 1497 1611 1657 1543 975 984 840 935 763 945 759 662 593 513 427 333 199 94 53 25
0 0 0 0 0 0 374 1668 1862 1917 2033 1830 1521 1442 1416 1127 998 755 598 483 438 1300 735 621 508 427 542 368 166 119 38 26
61 32 28 7 1 0 66 1609 1756 1830 1933 1872 1401 1348 1333 1311 966 576 376 754 1060 711 712 578 397 320 273 238 164 79 47 43
167 136 100 83 31 61 1146 1698 1826 1836 1922 1822 1695 1481 1476 1118 910 507 302 270 544 751 522 494 402 281 196 126 125 84 78 76
97 157 192 139 119 1150 1544 1867 1941 1789 1779 1765 1679 1613 1366 1075 940 551 195 139 189 609 300 235 269 151 143 136 105 86 61 79
37 126 197 208 242 455 1810 1835 1794 1843 1786 1790 1558 1502 1301 1183 1060 410 237 105 84 167 253 186 168 195 127 62 107 103 102 76
1 22 79 211 358 309 1426 1717 1667 1492 1619 1408 1272 1541 1413 1196 614 417 251 179 133 152 209 214 158 102 46 45 53 88 37 56
1 26 60 133 193 530 427 1457 1439 1321 1233 1217 1393 1166 1061 803 718 431 276 292 301 235 117 82 21 30 17 74 56 54 53 16
0 4 49 120 142 203 618 949 820 802 856 921 1046 1111 898 866 791 380 424 397 128 79 40 11 21 3 1 0 7 29 41 22
0 0 12 139 107 154 161 530 530 334 278 463 829 892 820 663 502 387 357 162 7 39 23 17 11 2 4 4 9 7 50 12
0 0 0 24 59 73 124 352 93 17 0 227 435 618 569 906 592 387 293 84 28 73 36 6 1 0 1 12 9 2 4 18
0 0 0 1 2 2 43 110 262 148 149 294 291 556 617 604 425 217 76 57 73 43 30 2 3 1 0 22 25 9 12 13
0 0 0 0 5 4 3 25 53 139 269 383 515 608 554 417 267 201 200 149 159 84 34 8 1 2 4 15 23 26 4 3
0 0 0 2 11 8 9 36 58 190 184 343 412 410 464 534 246 162 151 102 73 44 28 7 10 6 16 9 20 21 13 2
0 0 0 0 7 25 15 39 70 85 151 226 296 231 419 414 97 31 27 11 26 36 26 2 8 8 7 5 4 22 23 18
0 0 0 0 9 26 37 43 116 131 183 173 220 258 290 68 15 3 10 5 10 8 8 7 8 8 4 11 1 1 12 22
0 0 0 0 11 21 36 18 54 43 67 49 36 43 96 36 12 0 0 4 17 3 6 10 6 7 7 23 23 6 8 11

GFSFLT1_con_mucape_102.txt.gz
CAPE
0 0 0 0 0 0 0 2 1649 1959 1905 2019 1924 1680 1364 1438 1042 918 979 1227 1263 1178 1155 1064 1405 809 765 803 788 663 433 233
0 0 0 0 0 0 0 0 758 1925 2016 1966 2033 1881 1775 1657 1308 899 840 969 1047 1018 975 922 908 827 688 695 873 558 532 297
0 0 0 0 0 0 0 0 143 1851 1854 1874 1821 1688 1613 1546 1523 1044 853 904 987 1126 1100 1099 1041 900 764 841 1120 535 387 377
0 0 0 0 0 0 0 0 2 1571 1813 1961 1861 1838 1580 1744 1665 1371 1256 1323 1332 1346 1370 1098 1282 1627 610 928 995 905 331 316
0 0 0 0 0 40 0 0 0 873 1743 1797 1505 1516 1383 1154 1504 1813 1413 1568 1671 1674 1606 1379 1224 766 642 800 921 794 546 249
0 0 0 0 0 0 188 88 141 11 1704 1702 1558 1428 1356 1106 1126 1274 1153 1333 1432 1688 1453 1296 665 316 795 806 661 1009 288 255
0 0 0 0 0 0 17 277 483 105 1640 1745 1533 1365 1335 1275 1050 1266 1188 1300 1652 1309 1181 844 324 291 583 708 785 720 325 193
0 0 0 0 0 0 47 54 476 474 1247 1709 1577 1407 1335 1214 1057 987 1139 1102 1276 873 718 441 187 289 210 155 596 565 258 110
0 0 0 0 0 7 34 51 251 884 1390 1694 1685 1620 1374 1271 1139 1051 909 855 957 683 534 304 233 354 262 349 165 389 260 125
0 0 5 1 1 0 27 53 215 1077 1898 2134 1848 1746 1417 1299 1146 1097 900 792 775 649 404 172 251 300 163 114 512 335 101 154
0 0 0 0 3 23 71 89 130 937 1504 1770 1786 1392 1478 1165 1175 1051 899 766 621 528 299 131 83 102 52 268 173 138 84 57
0 0 0 8 5 44 111 101 118 629 1310 1349 1419 1388 1133 898 966 886 649 520 536 415 144 94 65 56 131 173 94 30 12 16
0 0 0 7 5 31 67 77 81 82 387 267 495 453 340 316 346 409 437 541 284 99 107 189 73 138 52 16 4 1 1 5
0 0 0 0 2 37 124 102 110 77 41 102 182 221 123 127 216 252 356 210 111 136 125 118 98 33 3 2 4 5 4 8
0 0 0 0 1 19 33 93 99 164 80 38 89 38 15 52 96 127 235 176 187 188 117 81 33 34 2 0 0 0 7 1
0 0 0 0 0 6 14 5 89 74 79 115 81 206 54 14 46 34 110 134 142 70 54 49 23 0 0 4 2 0 4 11
0 0 0 0 0 3 20 14 11 3 0 25 100 36 7 23 14 61 32 105 60 46 31 22 7 1 9 13 26 13 25 7
0 0 0 0 0 10 2 3 14 11 34 40 20 12 49 17 88 88 97 84 102 63 22 5 6 7 15 23 16 13 8 10
0 0 0 0 0 5 1 1 5 11 14 12 8 20 0 89 34 49 59 75 65 125 56 17 8 6 8 21 26 14 7 14

GFSFLT1_con_mucape_105.txt.gz
CAPE
0 0 0 0 0 0 0 0 0 1359 1906 1794 1699 1620 1540 1235 1007 1033 1078 1810 1908 1888 1806 1371 1142 1284 1016 1105 1003 832 743 588
0 0 0 0 0 0 0 0 0 0 1163 1801 1405 1106 1439 1499 1246 1326 1343 1513 1632 1566 1389 1245 1139 1093 1175 860 683 791 572 417
0 0 0 0 0 0 0 0 0 0 235 1541 1819 1532 1333 1471 1491 1270 1140 1118 1180 1164 1161 979 1045 900 1026 791 525 678 436 543
0 0 0 0 0 0 0 0 0 0 7 1361 2070 1520 1482 1488 1989 1431 1460 1394 1170 1119 1015 818 805 807 888 609 518 729 308 481
0 0 0 0 0 0 0 0 1 1 0 614 1615 1346 1295 1444 1835 1486 1578 1398 1055 1125 909 730 726 882 808 549 498 440 251 180
0 0 0 0 0 0 0 0 0 36 3 8 1476 1623 1725 1931 1976 1986 1609 1272 1182 1012 862 809 965 937 731 876 630 284 207 290
0 0 0 0 0 0 0 0 0 0 85 133 908 1684 1801 1716 1991 1973 1620 1580 1803 1132 1098 1201 1102 1125 1113 671 313 286 240 200
0 0 0 0 0 0 0 0 0 1 0 340 309 1516 1548 1756 1802 1953 1448 1023 1448 1512 1122 1115 1417 1247 1154 489 194 295 202 251
0 0 0 0 0 0 0 0 0 8 214 441 515 1428 1484 1748 1821 1758 1380 879 1195 1709 998 1069 1384 1047 732 430 444 311 214 263
0 0 0 0 4 8 0 0 2 13 458 895 1277 1536 1378 1412 1547 1726 1238 1006 1192 1383 866 992 958 836 264 238 176 200 235 41
0 0 0 0 0 10 15 40 18 44 312 999 1510 1503 1325 1150 1316 1244 1098 1009 905 962 745 707 620 345 190 167 171 185 168 56
0 0 0 0 0 5 24 61 68 66 356 597 802 1243 1228 1193 959 1227 1252 897 908 719 511 476 383 153 145 122 148 48 245 165
0 0 0 1 2 8 17 154 75 66 88 102 263 623 699 815 939 865 1034 759 578 485 353 343 216 101 82 73 95 65 81 66
8 0 2 15 3 2 7 29 151 66 51 53 141 413 439 240 458 478 477 433 374 324 302 204 57 29 84 74 85 107 48 11
8 0 0 0 0 3 10 63 116 88 20 27 86 105 118 124 87 150 190 207 225 216 104 41 9 27 87 64 30 9 1 2
0 0 0 0 0 0 10 15 38 124 115 20 66 52 58 84 44 34 87 126 125 122 56 44 2 58 75 33 25 1 1 5
0 0 0 0 0 1 8 0 13 8 104 98 34 93 110 129 48 30 25 32 75 24 65 23 33 72 45 0 0 4 29 0
0 0 0 0 0 6 1 1 0 7 17 29 19 69 44 22 27 0 3 14 9 39 21 29 40 32 5 17 29 26 11 12
0 0 0 0 0 0 0 0 0 3 2 10 11 11 44 38 35 7 45 55 20 40 31 23 13 3 7 39 33 21 10 8

GFSFLT1_con_mucape_111.txt.gz
CAPE
0 0 0 0 0 0 0 0 0 0 0 5 501 1135 1871 2480 2615 2696 3018 2594 2831 3147 2748 2566 2368 2317 2419 2416 2476 2289 2095 1711
0 0 0 0 0 0 0 0 0 0 0 0 0 799 1237 1902 2296 2891 3362 2855 2655 2971 2708 2397 2398 1892 2244 1970 2226 1897 1841 1888
7 0 0 0 0 0 0 0 0 0 0 0 13 26 310 919 1791 2160 2885 3257 2980 2750 2794 2367 2491 1872 1756 1729 1764 1886 1685 1849
0 0 0 0 0 0 0 0 0 0 0 0 0 12 61 690 1365 1425 2193 2981 3122 2777 2192 2535 2623 1850 1542 1697 1930 1738 1521 1426
0 0 0 0 0 0 0 0 0 0 0 0 0 0 0 46 1209 1272 1821 2383 2690 2722 2693 2105 2732 2116 1922 1643 1729 1667 1472 765
0 0 0 0 0 0 0 0 0 0 0 0 0 0 0 10 457 1729 2047 2148 2441 1867 2032 2303 2555 2340 2261 1955 1494 1725 1567 1250
0 0 0 0 0 0 0 0 0 0 0 0 0 0 0 0 84 739 2163 2086 2362 1935 1770 1724 2286 2374 1913 2196 2133 1684 1800 1493
0 0 0 0 0 0 0 0 0 0 0 0 0 0 0 0 0 268 1137 1953 2208 2169 1539 1797 1856 1998 2014 2275 2088 1193 1849 1735
0 0 0 0 0 0 0 0 0 0 0 0 0 0 0 0 0 6 808 1938 2093 2354 1577 1698 1907 2010 2314 2140 1995 1408 1451 1616
0 0 0 0 0 0 0 0 0 0 0 0 0 0 0 0 0 0 300 1606 2030 2495 1846 2008 1767 1985 2104 1964 1990 2149 1542 636
0 0 0 0 0 0 0 0 0 0 0 0 0 16 32 41 61 57 214 1781 2029 2290 2332 1657 1795 1561 1687 1819 1824 1835 1877 1405
0 0 0 0 0 0 0 0 0 0 0 0 1 63 50 74 273 385 787 1729 1865 1764 1851 1609 1461 1625 1431 2013 1808 1612 1258 893
0 0 0 0 0 0 0 0 0 0 0 0 0 57 29 52 131 364 915 1299 1597 1746 1705 1429 1281 1525 1531 1649 1619 1468 1015 823
0 0 0 0 0 0 0 0 0 0 0 24 35 7 35 116 147 31 116 811 1033 1096 1338 1411 1434 1250 1154 1681 1395 1139 680 716
0 0 0 0 0 0 0 0 0 1 0 2 29 27 53 118 121 135 170 417 526 802 1065 1113 1193 1189 936 1288 903 908 556 470
0 0 0 0 0 0 0 6 5 0 0 3 1 0 4 1 6 25 96 302 482 556 697 697 707 768 860 923 574 453 210 145
0 0 0 0 0 0 0 0 0 0 1 12 6 1 0 0 0 10 18 51 107 429 262 434 580 602 689 533 246 147 73 55
0 0 0 0 0 0 0 0 0 0 3 0 1 6 0 0 3 7 13 58 50 72 168 212 254 312 274 216 91 59 32 17
0 0 0 0 0 0 0 0 0 0 0 0 0 0 0 1 11 0 0 4 22 27 48 28 3 170 104 13 29 33 37 11

GFSFLT1_con_mucape_114.txt.gz
CAPE
0 0 0 0 0 0 0 0 0 0 0 29 298 567 1259 2082 2186 1924 2131 2213 2211 2411 2372 2542 2062 2123 2168 2167 2026 2106 1897 1691
5 3 0 0 0 0 0 0 0 0 0 0 0 0 78 1122 1804 2201 2426 2358 2403 2289 2327 2531 2333 1867 1834 1887 2101 1927 1944 1914
1 0 0 0 0 0 0 0 0 0 0 0 0 0 0 43 389 1077 1876 2433 2385 2504 2452 2440 2347 1995 1645 1834 2195 1949 1709 1785
0 0 0 0 0 0 0 0 0 0 0 0 0 0 0 1 19 258 1253 1664 2544 2023 2261 2307 2197 1969 1607 1793 1955 1858 1421 1358
0 0 0 0 0 0 0 0 0 0 0 0 0 0 0 0 0 4 401 892 1118 2145 1948 2247 2057 2063 1610 1403 1731 1633 1318 1145
0 0 0 0 0 0 0 0 0 0 0 0 0 0 0 0 0 0 2 422 840 1752 1975 2098 2065 2093 1888 1390 1639 1537 1271 1075
0 0 0 0 0 0 0 0 0 0 0 0 0 0 0 0 0 0 0 0 490 1260 1732 1928 1959 1793 1885 1673 1494 1540 1273 1260
0 0 0 0 0 0 0 0 0 0 0 0 0 0 0 0 0 0 0 0 0 374 1318 1584 1760 1801 1867 1882 1768 1509 1401 1245
0 0 0 0 0 0 0 0 0 0 0 0 0 0 0 0 0 0 0 0 0 1 1063 1201 912 1522 1569 1665 1677 1682 1487 1334
0 0 0 0 0 0 0 0 0 0 0 0 0 0 0 0 0 0 0 0 0 0 247 1361 1553 1692 1524 1600 1742 1608 1550 1276
0 0 0 0 0 0 0 0 0 0 0 0 0 0 0 0 0 0 0 0 0 0 0 1050 1843 1746 1703 1703 1666 1467 1391 1278
0 0 0 0 0 0 0 0 0 0 0 0 0 0 0 0 0 103 165 31 18 0 0 823 1594 1569 1655 1698 1602 1452 1381 1325
0 0 0 0 0 0 0 0 0 0 0 0 0 0 0 0 7 96 171 202 453 387 222 948 1255 1348 1336 1532 1575 1456 1392 1140
0 0 0 0 0 0 0 0 0 0 0 0 0 0 5 6 17 12 22 11 110 361 787 940 1087 1196 1172 1453 1517 1482 1549 1402
0 0 0 0 0 0 0 0 0 0 0 0 0 6 0 0 8 30 3 12 0 0 121 481 766 1125 1155 1257 1333 1399 1298 1296
0 0 0 0 0 0 0 0 0 0 0 1 7 1 0 2 0 2 0 0 0 61 40 158 296 351 768 1104 1118 1187 1209 907
0 0 0 0 0 0 0 0 0 0 0 0 0 2 0 0 0 0 0 3 83 117 115 253 337 404 723 872 968 872 825 809
0 0 0 0 0 0 0 0 0 0 0 0 0 0 5 0 0 0 0 0 4 93 159 288 390 534 534 628 574 615 597 602
0 0 0 0 0 0 0 0 0 0 0 0 0 0 0 0 0 0 0 0 0 1 52 132 258 181 246 326 386 363 341 351

GFSFLT1_con_mucape_117.txt.gz
CAPE
0 0 0 0 0 0 0 0 0 0 0 0 291 1087 912 556 798 1160 1522 1578 1614 2199 2155 2096 1944 1845 1929 1949 1802 1697 1515 1405
0 0 0 0 0 0 0 0 0 0 0 0 0 2 754 971 339 863 911 1181 1513 1675 2106 1911 2029 1831 1515 1950 2019 1712 1641 1434
38 0 0 0 0 0 0 0 0 0 0 0 0 0 0 0 0 202 481 690 1089 1296 1509 1803 1787 1743 1276 1581 1762 1894 1732 1751
26 0 0 0 0 0 0 0 0 0 0 0 0 0 0 0 0 0 194 339 545 960 1310 1346 1461 1417 1277 1233 1257 1706 1626 1594
16 0 0 0 0 0 0 0 0 0 0 0 0 0 0 0 0 0 0 71 386 433 897 893 1375 1187 1047 1081 1003 1234 1393 1196
40 1 0 0 0 0 0 0 0 0 0 0 0 0 0 0 0 0 0 0 0 245 563 518 776 1089 978 925 846 1364 1171 1064
20 21 11 1 0 0 0 0 0 0 0 0 0 0 0 0 0 0 0 0 0 0 166 526 479 940 1253 1168 1067 1082 1326 1250
11 8 3 0 0 0 0 0 0 0 0 0 0 0 0 0 0 0 0 0 0 0 0 29 394 570 1075 1250 993 1081 1137 1252
1 0 0 0 0 0 0 0 0 0 0 0 0 0 0 0 0 0 0 0 0 0 0 0 0 221 769 962 902 966 1188 1217
0 0 0 0 0 0 0 0 0 0 0 0 0 0 0 0 0 0 0 0 0 0 0 0 0 0 496 963 886 712 1410 1497
0 0 0 0 0 0 0 0 0 0 0 0 0 0 0 0 0 0 0 0 0 0 0 0 0 0 136 913 776 811 1076 1336
0 0 0 0 0 0 0 0 0 0 0 0 0 0 0 0 0 0 0 0 0 0 0 0 0 0 0 966 991 802 943 1051
0 0 0 0 0 0 0 0 0 0 0 0 0 0 0 0 0 0 1 10 0 6 4 90 144 0 0 889 1416 1104 964 1098
0 0 0 0 0 0 0 0 0 0 0 0 0 0 0 0 0 0 0 0 4 16 3 14 156 101 18 658 1159 1262 1128 952
0 0 0 0 0 0 0 0 0 0 0 0 0 0 4 0 1 0 0 2 7 1 0 1 34 456 292 687 708 675 704 951
0 0 0 0 0 0 0 0 0 0 0 0 0 9 8 1 1 0 0 4 2 0 0 0 4 11 228 396 285 551 723 865
0 0 0 0 0 0 0 0 0 0 0 0 0 0 0 0 1 0 2 1 0 0 0 1 0 0 41 138 207 412 485 671
0 0 0 0 0 0 0 0 0 0 0 0 0 0 0 0 0 0 0 0 3 1 0 0 5 0 9 72 0 90 208 427
0 0 0 0 0 0 0 0 0 0 0 0 0 0 0 0 0 0 0 0 0 0 2 0 36 8 30 34 22 295 282 325

GFSFLT1_con_mucape_120.txt.gz
CAPE
0 0 0 0 0 0 0 0 0 0 0 0 0 13 304 281 261 188 290 487 28 731 839 1351 1382 1476 1670 1654 1665 1732 1697 1195
0 0 0 0 0 0 0 0 0 0 0 0 0 0 0 26 400 468 241 281 523 600 718 1043 852 945 1083 1335 1525 1599 1501 1236
9 8 0 0 0 0 0 0 0 0 0 0 0 0 0 0 0 0 292 243 264 428 394 530 829 991 912 818 792 823 1158 1072
47 48 13 2 0 0 0 0 0 0 0 0 0 0 0 0 0 0 0 0 0 207 361 337 397 574 677 699 547 525 371 642
41 11 24 27 0 0 0 0 0 0 0 0 0 0 0 0 0 0 0 0 0 2 173 291 296 459 507 650 555 487 439 196
126 106 41 14 11 6 7 0 0 0 0 0 0 0 0 0 0 0 0 0 0 0 0 80 243 330 375 460 757 634 390 157
87 101 62 3 0 0 1 0 0 0 0 0 0 0 0 0 0 0 0 0 0 0 0 0 0 110 274 301 431 642 561 304
32 74 33 0 0 0 0 0 0 0 0 0 0 0 0 0 0 0 0 0 0 0 0 0 0 0 0 70 228 677 697 514
43 27 0 0 0 0 0 0 0 0 0 0 0 0 0 0 0 0 0 0 0 0 0 0 0 0 0 0 8 356 811 707
33 0 3 1 0 0 0 0 0 0 0 0 0 0 0 0 0 0 0 0 0 0 0 0 0 0 0 0 0 0 549 796
0 0 0 0 0 0 0 0 0 0 0 0 0 0 0 0 0 0 0 0 0 0 0 0 0 0 0 0 0 0 172 699
0 0 0 0 0 0 0 0 0 0 0 0 0 0 0 0 0 0 0 0 0 0 0 0 0 0 0 0 0 0 5 540
0 0 0 0 0 0 0 0 0 0 0 0 0 0 0 0 0 0 0 0 0 0 0 0 0 1 4 4 3 0 0 600
0 0 0 0 0 0 0 0 0 0 0 0 0 0 0 0 0 0 0 0 0 0 0 0 0 0 0 0 51 3 0 430
0 0 0 0 0 0 0 0 0 0 0 0 0 0 0 0 6 9 10 1 0 0 0 0 0 0 0 0 44 10 5 661
0 0 0 0 0 0 0 0 0 0 0 0 0 0 0 0 0 4 2 0 0 0 0 1 0 0 0 0 24 14 32 530
0 0 0 0 0 0 0 0 0 0 0 0 0 0 0 0 0 0 0 0 0 0 4 0 0 0 0 0 7 126 197 138
0 0 0 0 0 0 0 0 0 0 0 0 0 0 0 0 0 0 0 0 0 0 2 0 0 0 1 0 26 44 90 123
0 0 0 0 0 0 0 0 0 0 0 0 0 0 0 0 0 0 0 0 0 0 0 0 1 1 1 0 27 49 124 21

GFSFLT1_con_mucape_123.txt.gz
CAPE
0 0 0 0 0 0 0 0 0 0 0 0 0 0 0 25 57 44 9 95 56 146 67 58 7 276 486 1036 1157 1301 1163 1073
0 0 0 1 1 0 0 0 0 0 0 0 0 0 0 0 0 0 100 152 149 99 198 53 34 113 109 459 852 1068 1030 774
3 1 9 12 9 0 0 0 0 0 0 0 0 0 0 0 0 0 0 0 0 72 55 75 30 15 154 151 656 789 764 660
1 6 17 19 37 8 0 0 0 0 0 0 0 0 0 0 0 0 0 0 0 0 0 56 80 138 243 204 528 412 390 377
3 18 30 76 90 58 12 2 0 0 0 0 0 0 0 0 0 0 0 0 0 0 0 0 0 0 128 167 145 369 205 36
50 67 93 110 124 80 34 18 7 10 10 0 0 0 0 0 0 0 0 0 0 0 0 0 0 0 0 23 109 150 546 78
48 34 97 110 109 120 56 0 0 0 0 0 0 0 0 0 0 0 0 0 0 0 0 0 0 0 0 0 0 0 109 441
9 32 18 37 63 14 0 0 0 0 0 0 0 0 0 0 0 0 0 0 0 0 0 0 0 0 0 0 0 0 0 119
0 0 0 4 9 0 0 0 0 0 0 0 0 0 0 0 0 0 0 0 0 0 0 0 0 0 0 0 0 0 0 0
0 0 0 1 0 0 0 0 0 0 0 0 0 0 0 0 0 0 0 0 0 0 0 0 0 0 0 0 0 0 0 0
0 0 0 0 0 0 0 0 0 0 0 0 0 0 0 0 0 0 0 0 0 0 0 0 0 0 0 0 0 0 0 0
0 0 0 0 0 0 0 0 0 0 0 0 0 0 0 0 0 0 0 0 0 0 0 0 0 0 0 0 0 0 0 0
0 0 0 0 0 0 0 0 0 0 0 0 0 0 0 0 0 0 0 0 0 0 0 0 0 0 0 0 0 0 0 1
0 0 0 0 0 0 0 0 0 0 0 0 0 0 0 0 0 0 0 0 0 0 0 0 0 0 0 0 0 1 0 0
0 0 0 0 0 0 0 0 0 0 0 0 0 0 0 0 0 0 0 0 0 0 0 0 0 0 0 0 0 0 0 0
0 0 0 0 0 0 0 0 0 0 0 0 0 0 0 0 0 0 0 0 0 0 0 0 0 0 0 0 0 0 0 0
0 0 0 0 0 0 0 0 0 0 0 0 0 0 0 0 0 0 0 0 0 0 0 0 0 0 0 0 0 0 0 4
0 0 0 0 0 0 0 0 0 0 0 0 0 0 0 0 0 0 0 0 0 0 0 1 1 0 0 0 0 0 0 24
0 0 0 0 0 0 0 0 0 0 0 0 0 0 0 0 0 0 0 0 0 0 0 0 0 0 0 0 0 0 18 28